Location: Fontevrault
(47.1823°N, 0.0493°E)
Time: 04:21:53
(UTC+00:00)

Uosat 12 SS-18 rocket - Pass Details

Date: 30 October 2021
Orbit: 579 x 1405 km, 64.6° (Epoch: 01 December)

Event Time Altitude Azimuth Distance (km) Brightness Sun altitude
Rises 21:52:42 0° 322° (NW) 3,868 8.8 -49.7°
Reaches altitude 10° 21:55:13 10° 325° (NW) 3,018 8.0 -50.0°
Enters shadow 21:56:50 19° 328° (NNW) 2,499 7.5 -50.1°
